Regional Weather Roundup
Issued by NWS

Home | Current Version | Previous Version | Graphics & Text | Print | Product List | Glossary Off
Versions: 1 2 3 4 5 6 7 8 9 10 11 12 13 14 15 16 17 18 19 20 21 22 23 24 25 26 27 28 29 30 31 32 33 34 35 36 37 38 39 40 41 42 43 44 45 46 47 48 49 50

000
ASUS43 KDMX 070601
RWRIA

WEATHER ROUNDUP FOR IOWA
NATIONAL WEATHER SERVICE DES MOINES IA
1200 AM CST WED DEC 07 2016

NOTE: "FAIR" INDICATES FEW OR NO CLOUDS BELOW 12,000 FEET WITH NO
SIGNIFICANT WEATHER AND/OR OBSTRUCTIONS TO VISIBILITY.

* - THESE STATIONS ARE NOT NWS STATIONS...THUS NOT UNDER NWS
QUALITY CONTROL.  THEY ALSO DO NOT REPORT WEATHER SUCH
AS PRECIPITATION OR FOG.

IAZ001>003-012>014-020>022-031>034-043>046-070700-
   NORTHWEST IOWA

CITY           SKY/WX    TMP DP  RH WIND       PRES   REMARKS
CARROLL *      CLEAR     18  10  73 W20       30.09R WCI   1
CHEROKEE *     CLEAR     15   9  78 W14G20    30.09S WCI   0
DENISON *      CLEAR     18  10  73 W16G24    30.09R WCI   3
LE MARS *      CLEAR     14   9  79 W13G20    30.13R WCI   0
ORANGE CITY *  PTCLDY    12   9  85 W26G35    30.05S WCI  -8
SHELDON *      CLOUDY    12   7  79 W20G26    30.04R WCI  -6
SIOUX CITY     CLEAR     18   7  62 NW21G29   30.14R WCI   1
6HR MIN TEMP:  18; 6HR MAX TEMP:  25;

SPENCER        CLEAR     13   7  77 W28G35    30.04R WCI  -8
6HR MIN TEMP:  13; 6HR MAX TEMP:  20;

STORM LAKE *   MOCLDY    14   9  79 W23G33    30.04S WCI  -5
$$

IAZ055>058-069>071-079>083-090>094-070700-
   SOUTHWEST IOWA

CITY           SKY/WX    TMP DP  RH WIND       PRES   REMARKS
ATLANTIC *     CLEAR     21  12  68 W9        30.12S WCI  11
AUDUBON *      CLEAR     19  10  68 W12       30.10R WCI   7
CLARINDA *     MOCLDY    23  14  68 NW3       30.17S
COUNCIL BLFS * MOCLDY    21  12  68 NW9       30.14S WCI  11
CRESTON *      PTCLDY    21  12  68 W15       30.12R WCI   8
HARLAN  *      CLEAR     19  12  73 NW14      30.16R WCI   6
LAMONI         PTCLDY    25  14  63 W13       30.12R WCI  14
6HR MIN TEMP:  24; 6HR MAX TEMP:  28;

RED OAK *      CLOUDY    23  12  63 NW8       30.15R WCI  14
SHENANDOAH *   MOCLDY    25  14  63 W7        30.17R WCI  17
$$

IAZ047>049-059>061-072>074-084-070700-
   CENTRAL IOWA

CITY           SKY/WX    TMP DP  RH WIND       PRES   REMARKS
AMES           PTCLDY    21  14  74 W18       30.06R WCI   6
6HR MIN TEMP:  21; 6HR MAX TEMP:  27;

ANKENY *       CLEAR     23  12  63 W18G24    30.10R WCI   9
BOONE *        PTCLDY    19  10  68 W17G31    30.05R WCI   4
CHARITON *       N/A     25  14  63 W13       30.10R WCI  13
DES MOINES     PTCLDY    24  12  60 W20       30.10R WCI  10
6HR MIN TEMP:  24; 6HR MAX TEMP:  30;

GRINNELL*      CLEAR     23  15  71 W13       30.06R WCI  11
KNOXVILLE *    MOCLDY    25  14  63 W15       30.08R WCI  12
MARSHALLTOWN   CLEAR     20  13  74 W12       30.04R WCI   8
6HR MIN TEMP:  20; 6HR MAX TEMP:  26;

NEWTON *       CLEAR     23  14  68 W14G22    30.07R WCI  11
PELLA *        CLEAR     26  14  62 W21G26    30.10R WCI  11
PERRY *          N/A     22  16  78 W14       30.09R WCI   9
$$

IAZ004>006-015-016-023>025-035-036-070700-
   NORTH CENTRAL IOWA

CITY           SKY/WX    TMP DP  RH WIND       PRES   REMARKS
ALGONA *       FLURRIES  16  10  79 W22       30.01R WCI  -2
CLARION *      PTCLDY    18  12  79 W20G25    30.02R WCI   1
ESTHERVILLE    CLEAR     13   7  77 W23G31    29.98S WCI  -6
6HR MIN TEMP:  13; 6HR MAX TEMP:  20;

FORT DODGE *   CLEAR     18   7  62 W12G21    30.05R WCI   5
MASON CITY     PTCLDY    16  10  77 W20G26    29.98R WCI  -1
6HR MIN TEMP:  16; 6HR MAX TEMP:  22;

WEBSTER CITY * CLEAR     18  12  79 W20G28    30.03R WCI   1
IOWA FALLS *     N/A     20  14  78 W23G30    30.02R WCI   3
$$

IAZ007>011-017>019-026>030-037>042-050>054-066-070700-
   NORTHEAST IOWA

CITY           SKY/WX    TMP DP  RH WIND       PRES   REMARKS
CEDAR RAPIDS   CLEAR     22  16  78 W15       30.03R WCI   9
6HR MIN TEMP:  22; 6HR MAX TEMP:  27;

CHARLES CITY * CLEAR     19  12  73 W20G29    29.95S WCI   4
CLINTON *      CLEAR     25  19  78 W15       30.03R WCI  13
DECORAH *      LGT SNOW  19  14  79 W12G21    29.91F WCI   7
DUBUQUE        FLURRIES  21  14  74 W9        29.97R WCI  11
6HR MIN TEMP:  21; 6HR MAX TEMP:  26; 6HR PCP: TRACE;

MONTICELLO *   CLEAR     23  14  68 W10       30.01R WCI  12
OELWEIN *      CLEAR     19  14  79 W12       29.98R WCI   7
WATERLOO       CLEAR     20  12  71 W16       30.01R WCI   6
6HR MIN TEMP:  20; 6HR MAX TEMP:  25;

$$

IAZ064-065-067-068-078-070700-
   EAST CENTRAL IOWA

CITY           SKY/WX    TMP DP  RH WIND       PRES   REMARKS
DAVENPORT      CLEAR     26  18  71 W16       30.04R WCI  14
6HR MIN TEMP:  26; 6HR MAX TEMP:  29;

IOWA CITY      PTCLDY    26  17  68 W10       30.07R WCI  16
6HR MIN TEMP:  25; 6HR MAX TEMP:  29;

MUSCATINE *    PTCLDY    28  18  64 W14       30.08R WCI  17
QUAD CITIES    CLEAR     28  17  63 W13       30.05R WCI  17
6HR MIN TEMP:  27; 6HR MAX TEMP:  31;

$$

IAZ062-063-075>077-085>089-095>099-070700-
   SOUTHEAST IOWA

CITY           SKY/WX    TMP DP  RH WIND       PRES   REMARKS
BURLINGTON     PTCLDY    29  17  61 W9        30.08F WCI  20
6HR MIN TEMP:  28; 6HR MAX TEMP:  32;

FAIRFIELD *    PTCLDY    27  14  59 W12       30.08S WCI  16
FORT MADISON * PTCLDY    28  18  64 W8        30.10R WCI  20
KEOKUK *       PTCLDY    30  18  59 W10       30.10R WCI  21
OSKALOOSA *      N/A     25  17  72 W14       30.09R WCI  13
CENTERVILLE *    N/A     27  16  63 W12       30.12R WCI  16
OTTUMWA        PTCLDY    27  13  55 W12G20    30.09R WCI  17
6HR MIN TEMP:  26; 6HR MAX TEMP:  30;

WASHINGTON *   CLOUDY    27  18  69 W13G20    30.08S WCI  16
$$

ABBREVIATIONS USED IN REMARKS
   TC - TEMPERATURES IN CELSIUS
  WCI - WIND CHILL INDEX
   HX - HEAT INDEX
  VSB - VISIBILITY
$$





USA.gov is the U.S. government's official web portal to all federal, state and local government web resources and services.